Regional Weather Roundup
Issued by NWS Raleigh/Durham, NC

Home | Current Version | Previous Version | Text Only | Print | Product List | Glossary On
Versions: 1 2 3 4 5 6 7 8 9 10 11 12 13 14 15 16 17 18 19 20 21 22 23 24 25 26 27 28 29 30 31 32 33 34 35 36 37 38 39 40 41 42 43 44 45 46 47 48 49
000
ASUS42 KRAH 011210
RWRRAH
NORTH CAROLINA WEATHER ROUNDUP
NATIONAL WEATHER SERVICE RALEIGH NC
800 AM EDT WED OCT 01 2014

NOTE: "FAIR" INDICATES FEW OR NO CLOUDS BELOW 12,000 FEET WITH NO
SIGNIFICANT WEATHER AND/OR OBSTRUCTIONS TO VISIBILITY.

NCZ001-053-055-056-065-067-011300-
WESTERN NORTH CAROLINA

CITY           SKY/WX    TMP DP  RH WIND       PRES   REMARKS
ASHEVILLE      PTCLDY    52  50  93 CALM      30.07R FOG
JEFFERSON      PTCLDY    51  50  96 CALM      30.07R
MORGANTON      FOG       49  49 100 CALM      30.05R VSB 1/4
HICKORY        CLEAR     58  56  93 NW6       29.99R
RUTHERFORDTON  CLEAR     56  55  97 NW3       30.01R
MOUNT AIRY     CLEAR     55  53  92 CALM      30.02R FOG
BOONE          PTCLDY    44  44 100 CALM      30.09R FOG
$$

NCZ021-022-025-041-071-084-088-011300-
CENTRAL NORTH CAROLINA

CITY           SKY/WX    TMP DP  RH WIND       PRES   REMARKS
CHARLOTTE      PTCLDY    60  58  92 CALM      29.99R
GREENSBORO     FOG       61  61 100 E3        29.99R VSB 1/8
WINSTON-SALEM  FOG       59  58  96 NE5       30.01R VSB<1/4
RALEIGH-DURHAM FOG       61  57  88 NE3       29.99S VSB 1/16
FORT BRAGG     CLEAR     60  60  99 N1        29.97R
FAYETTEVILLE   FOG       60  60 100 NE3       29.97R VSB 1/4
BURLINGTON     FOG       59  58  96 S5        29.99R VSB 1/4
LAURINBURG     FOG       58  58 100 N3        29.98R VSB 1/2
$$

NCZ011-015-027-028-043-044-047-080-103-011300-
NORTHEASTERN NORTH CAROLINA

CITY           SKY/WX    TMP DP  RH WIND       PRES   REMARKS
ROCKY MT-WILSO FOG       59  59 100 N5        29.98R VSB<1/4
GREENVILLE     LGT RAIN  59  59 100 CALM      29.98S
WASHINGTON     SUNNY     60  59  98 CALM      29.97R
ELIZABETH CITY SUNNY     66  64  93 N7        29.96R
MANTEO         SUNNY     69  64  84 N8        29.94R
CAPE HATTERAS  MOSUNNY   68  66  93 NE9       29.92R
$$

NCZ078-087-090-091-093-098-101-011300-
SOUTHEASTERN NORTH CAROLINA

CITY           SKY/WX    TMP DP  RH WIND       PRES   REMARKS
LUMBERTON      FOG       60  60 100 CALM      29.97R VSB<1/4
GOLDSBORO      PTCLDY    61  61 100 CALM      29.96R FOG
KINSTON        FOG       61  61 100 CALM      29.97R VSB 1/2
KENANSVILLE    FOG       61  61 100 CALM      29.98R VSB<1/4
NEW BERN       CLOUDY    65  63  93 N3        29.97R FOG
CHERRY POINT   CLOUDY    67  65  93 NE7       29.96R
BEAUFORT       MOSUNNY   67  65  93 N5        29.94
JACKSONVILLE   CLOUDY    63  62  97 N3        29.96R FOG
WILMINGTON     SUNNY     63  62  97 NE7       29.95R FOG
$$



USA.gov is the U.S. government's official web portal to all federal, state and local government web resources and services.